Hourly Data Report for September 12, 2017

All times are specified in Local Standard Time (LST). Add 1 hour to adjust for Daylight Saving Time where and when it is observed.

MIRAMICHI RCS
NEW BRUNSWICK

47°00'34.000" N
65°27'54.000" W
33.00 m
8100989
71744
ACQ

Download Data

Hourly Data (September 2017)
Hourly Data Report for September 12, 2017
Temp Definition
°C
Dew Point Temp Definition
°C
Rel Hum Definition
%
Wind Dir Definition
10's deg

Wind Spd Definition
km/h
Visibility Definition
km
Stn Press Definition
kPa
Hmdx Definition


Wind Chill Definition


Weather Definition


TIME
00:00 9.6 8.6 94 26 4   101.14     LegendNANA
01:00 9.6 8.2 91 29 1   101.08     LegendNANA
02:00 9.0 8.4 96 27 5   101.04     LegendNANA
03:00 9.2 8.7 96 29 3   100.95     LegendNANA
04:00 8.8 8.0 95 29 2   100.88     LegendNANA
05:00 7.7 7.1 96 24 2   100.88     LegendNANA
06:00 6.9 6.1 95 0 1   100.85     LegendNANA
07:00 7.8 7.1 95   0   100.84     LegendNANA
08:00 10.1 8.9 92 11 4   100.77     LegendNANA
09:00 13.6 11.1 85 26 4   100.76     LegendNANA
10:00 16.9 10.6 66 15 5   100.66     LegendNANA
11:00 19.2 10.6 57 20 7   100.59     LegendNANA
12:00 20.5 12.0 58 24 8   100.49     LegendNANA
13:00 22.0 11.0 50 22 4   100.39     LegendNANA
14:00 23.2 11.8 49 24 3   100.31 25   LegendNANA
15:00 23.0 13.3 54 4 6   100.21 26   LegendNANA
16:00 22.3 14.2 60 6 12   100.15 26   LegendNANA
17:00 21.0 14.2 65 2 6   100.11     LegendNANA
18:00 19.1 13.7 71 2 10   100.13     LegendNANA
19:00 17.3 13.3 78 7 6   100.13     LegendNANA
20:00 16.4 13.6 83 4 4   100.16     LegendNANA
21:00 14.7 13.0 90 35 2   100.15     LegendNANA
22:00 13.5 12.2 92 31 2   100.17     LegendNANA
23:00 13.1 11.9 92 22 2   100.17     LegendNANA

Notes on Data Quality.

Legend

  • E = Estimated
  • M = Missing
  • NA = Not Available
  • ‡ = Partner data that is not subject to review by the National Climate Archives
Date modified: